����������;��������(kWh)
2019-08-12 00:00;72,55
2019-08-12 00:15;73,15
2019-08-12 00:30;76
2019-08-12 00:45;77,05
2019-08-12 01:00;76,65
2019-08-12 01:15;78,2
2019-08-12 01:30;76,9
2019-08-12 01:45;76,35
2019-08-12 02:00;77,1
2019-08-12 02:15;77,3
2019-08-12 02:30;75,95
2019-08-12 02:45;75,8
2019-08-12 03:00;77,55
2019-08-12 03:15;77,5
2019-08-12 03:30;77,65
2019-08-12 03:45;77,85
2019-08-12 04:00;75,5
2019-08-12 04:15;75,95
2019-08-12 04:30;75,3
2019-08-12 04:45;74,2
2019-08-12 05:00;74,75
2019-08-12 05:15;74,4
2019-08-12 05:30;74,5
2019-08-12 05:45;74,95
2019-08-12 06:00;71,7
2019-08-12 06:15;71,55
2019-08-12 06:30;70,35
2019-08-12 06:45;66,8
2019-08-12 07:00;68,65
2019-08-12 07:15;66,05
2019-08-12 07:30;65,95
2019-08-12 07:45;66,35
2019-08-12 08:00;66,6
2019-08-12 08:15;66,2
2019-08-12 08:30;69,2
2019-08-12 08:45;82,9
2019-08-12 09:00;79,3
2019-08-12 09:15;81,35
2019-08-12 09:30;84,7
2019-08-12 09:45;83,6
2019-08-12 10:00;82,75
2019-08-12 10:15;86,1
2019-08-12 10:30;88,9
2019-08-12 10:45;83,6
2019-08-12 11:00;88,55
2019-08-12 11:15;91,85
2019-08-12 11:30;92,8
2019-08-12 11:45;92,5
2019-08-12 12:00;91,65
2019-08-12 12:15;91,7
2019-08-12 12:30;94,25
2019-08-12 12:45;92,2
2019-08-12 13:00;91,45
2019-08-12 13:15;95,1
2019-08-12 13:30;91,25
2019-08-12 13:45;89,45
2019-08-12 14:00;92,45
2019-08-12 14:15;89,1
2019-08-12 14:30;90,3
2019-08-12 14:45;90
2019-08-12 15:00;88,45
2019-08-12 15:15;88,65
2019-08-12 15:30;89,9
2019-08-12 15:45;88,75
2019-08-12 16:00;78,45
2019-08-12 16:15;79,3
2019-08-12 16:30;76,2
2019-08-12 16:45;77,5
2019-08-12 17:00;73,8
2019-08-12 17:15;73,75
2019-08-12 17:30;76,2
2019-08-12 17:45;76,05
2019-08-12 18:00;75,25
2019-08-12 18:15;76,6
2019-08-12 18:30;74,7
2019-08-12 18:45;75,45
2019-08-12 19:00;75,8
2019-08-12 19:15;76,75
2019-08-12 19:30;79,1
2019-08-12 19:45;80,35
2019-08-12 20:00;79,95
2019-08-12 20:15;79,55
2019-08-12 20:30;81,1
2019-08-12 20:45;84,9
2019-08-12 21:00;88,25
2019-08-12 21:15;87,9
2019-08-12 21:30;85,05
2019-08-12 21:45;84,95
2019-08-12 22:00;78,05
2019-08-12 22:15;76,2
2019-08-12 22:30;77
2019-08-12 22:45;75,8
2019-08-12 23:00;80,75
2019-08-12 23:15;77,3
2019-08-12 23:30;81,05
2019-08-12 23:45;87,05
2019-08-13 00:00;74,45
2019-08-13 00:15;73,2
2019-08-13 00:30;72,55
2019-08-13 00:45;72,05
2019-08-13 01:00;71,75
2019-08-13 01:15;72,05
2019-08-13 01:30;72,4
2019-08-13 01:45;71,9
2019-08-13 02:00;72,9
2019-08-13 02:15;73,1
2019-08-13 02:30;73,85
2019-08-13 02:45;72,35
2019-08-13 03:00;71,65
2019-08-13 03:15;72,7
2019-08-13 03:30;73,2
2019-08-13 03:45;75,7
2019-08-13 04:00;77,05
2019-08-13 04:15;77,8
2019-08-13 04:30;78,25
2019-08-13 04:45;76,85
2019-08-13 05:00;77,1
2019-08-13 05:15;77,5
2019-08-13 05:30;76,2
2019-08-13 05:45;76,45
2019-08-13 06:00;75,55
2019-08-13 06:15;75,15
2019-08-13 06:30;75,3
2019-08-13 06:45;70,15
2019-08-13 07:00;67,8
2019-08-13 07:15;66,1
2019-08-13 07:30;65,65
2019-08-13 07:45;66,55
2019-08-13 08:00;66,1
2019-08-13 08:15;67,55
2019-08-13 08:30;68,1
2019-08-13 08:45;68,25
2019-08-13 09:00;69,35
2019-08-13 09:15;80,45
2019-08-13 09:30;82,6
2019-08-13 09:45;82,6
2019-08-13 10:00;76,6
2019-08-13 10:15;86,3
2019-08-13 10:30;86,5
2019-08-13 10:45;90,8
2019-08-13 11:00;94,75
2019-08-13 11:15;92,25
2019-08-13 11:30;93,05
2019-08-13 11:45;93,65
2019-08-13 12:00;95,5
2019-08-13 12:15;95,2
2019-08-13 12:30;89,5
2019-08-13 12:45;91,35
2019-08-13 13:00;91,2
2019-08-13 13:15;90,7
2019-08-13 13:30;92,85
2019-08-13 13:45;91,7
2019-08-13 14:00;90,2
2019-08-13 14:15;92,95
2019-08-13 14:30;89,2
2019-08-13 14:45;89,2
2019-08-13 15:00;90,4
2019-08-13 15:15;87,85
2019-08-13 15:30;87,5
2019-08-13 15:45;84,35
2019-08-13 16:00;75,65
2019-08-13 16:15;75,2
2019-08-13 16:30;77,3
2019-08-13 16:45;74,2
2019-08-13 17:00;73,2
2019-08-13 17:15;74,3
2019-08-13 17:30;73,6
2019-08-13 17:45;78
2019-08-13 18:00;75,8
2019-08-13 18:15;75,6
2019-08-13 18:30;77,2
2019-08-13 18:45;84,6
2019-08-13 19:00;85,8
2019-08-13 19:15;87,75
2019-08-13 19:30;86,85
2019-08-13 19:45;86,9
2019-08-13 20:00;90,2
2019-08-13 20:15;85
2019-08-13 20:30;85,65
2019-08-13 20:45;88,85
2019-08-13 21:00;88,55
2019-08-13 21:15;86,95
2019-08-13 21:30;87
2019-08-13 21:45;87,25
2019-08-13 22:00;85,6
2019-08-13 22:15;84,8
2019-08-13 22:30;84,75
2019-08-13 22:45;82,8
2019-08-13 23:00;81,25
2019-08-13 23:15;76,9
2019-08-13 23:30;78,55
2019-08-13 23:45;83,9
2019-08-14 00:00;70,6
2019-08-14 00:15;71,2
2019-08-14 00:30;69,85
2019-08-14 00:45;71,7
2019-08-14 01:00;70,95
2019-08-14 01:15;70,6
2019-08-14 01:30;71,7
2019-08-14 01:45;71,05
2019-08-14 02:00;71
2019-08-14 02:15;72,45
2019-08-14 02:30;71,2
2019-08-14 02:45;70,95
2019-08-14 03:00;71,05
2019-08-14 03:15;73,45
2019-08-14 03:30;72,05
2019-08-14 03:45;72
2019-08-14 04:00;73,9
2019-08-14 04:15;74,8
2019-08-14 04:30;74,15
2019-08-14 04:45;72,2
2019-08-14 05:00;74,15
2019-08-14 05:15;72,45
2019-08-14 05:30;72,75
2019-08-14 05:45;74,65
2019-08-14 06:00;71,45
2019-08-14 06:15;70,5
2019-08-14 06:30;73,25
2019-08-14 06:45;70,95
2019-08-14 07:00;68,85
2019-08-14 07:15;68,7
2019-08-14 07:30;68,55
2019-08-14 07:45;69,45
2019-08-14 08:00;68,75
2019-08-14 08:15;69,1
2019-08-14 08:30;71,3
2019-08-14 08:45;69,4
2019-08-14 09:00;70,5
2019-08-14 09:15;72,3
2019-08-14 09:30;68,5
2019-08-14 09:45;68,85
2019-08-14 10:00;71
2019-08-14 10:15;81,15
2019-08-14 10:30;82,7
2019-08-14 10:45;85,25
2019-08-14 11:00;83,2
2019-08-14 11:15;84,7
2019-08-14 11:30;83,5
2019-08-14 11:45;86,6
2019-08-14 12:00;87,5
2019-08-14 12:15;86,45
2019-08-14 12:30;86,65
2019-08-14 12:45;89,6
2019-08-14 13:00;88,3
2019-08-14 13:15;90,35
2019-08-14 13:30;91,9
2019-08-14 13:45;89,6
2019-08-14 14:00;89,3
2019-08-14 14:15;89,1
2019-08-14 14:30;87,65
2019-08-14 14:45;87,45
2019-08-14 15:00;89,5
2019-08-14 15:15;88,1
2019-08-14 15:30;90
2019-08-14 15:45;89,35
2019-08-14 16:00;86,95
2019-08-14 16:15;90,2
2019-08-14 16:30;87,9
2019-08-14 16:45;85,45
2019-08-14 17:00;87,8
2019-08-14 17:15;86,95
2019-08-14 17:30;87,4
2019-08-14 17:45;90,2
2019-08-14 18:00;89,45
2019-08-14 18:15;86,55
2019-08-14 18:30;89,6
2019-08-14 18:45;83,4
2019-08-14 19:00;86,1
2019-08-14 19:15;89,2
2019-08-14 19:30;89,3
2019-08-14 19:45;88,1
2019-08-14 20:00;83,9
2019-08-14 20:15;77,9
2019-08-14 20:30;77,4
2019-08-14 20:45;82,55
2019-08-14 21:00;80,25
2019-08-14 21:15;80,3
2019-08-14 21:30;79,5
2019-08-14 21:45;79
2019-08-14 22:00;75,45
2019-08-14 22:15;77,85
2019-08-14 22:30;77,4
2019-08-14 22:45;76,25
2019-08-14 23:00;82,25
2019-08-14 23:15;80,8
2019-08-14 23:30;81,65
2019-08-14 23:45;86,4
2019-08-15 00:00;74,45
2019-08-15 00:15;74,95
2019-08-15 00:30;73,2
2019-08-15 00:45;73,6
2019-08-15 01:00;73,9
2019-08-15 01:15;70,65
2019-08-15 01:30;69,05
2019-08-15 01:45;72,05
2019-08-15 02:00;69,9
2019-08-15 02:15;70,55
2019-08-15 02:30;69,75
2019-08-15 02:45;70,65
2019-08-15 03:00;70,55
2019-08-15 03:15;69,8
2019-08-15 03:30;69,8
2019-08-15 03:45;71,55
2019-08-15 04:00;70,3
2019-08-15 04:15;72
2019-08-15 04:30;73,8
2019-08-15 04:45;71,35
2019-08-15 05:00;70,5
2019-08-15 05:15;71,65
2019-08-15 05:30;70,75
2019-08-15 05:45;70,6
2019-08-15 06:00;69,8
2019-08-15 06:15;69,95
2019-08-15 06:30;69,85
2019-08-15 06:45;70,35
2019-08-15 07:00;76,95
2019-08-15 07:15;75,05
2019-08-15 07:30;74,95
2019-08-15 07:45;76,5
2019-08-15 08:00;75
2019-08-15 08:15;74,65
2019-08-15 08:30;78,1
2019-08-15 08:45;76,25
2019-08-15 09:00;75,1
2019-08-15 09:15;72,3
2019-08-15 09:30;66,9
2019-08-15 09:45;69,4
2019-08-15 10:00;71,85
2019-08-15 10:15;70,05
2019-08-15 10:30;70,3
2019-08-15 10:45;80,2
2019-08-15 11:00;81,65
2019-08-15 11:15;79,6
2019-08-15 11:30;82,15
2019-08-15 11:45;80,9
2019-08-15 12:00;83,1
2019-08-15 12:15;84,6
2019-08-15 12:30;81,7
2019-08-15 12:45;79,5
2019-08-15 13:00;79,35
2019-08-15 13:15;68,45
2019-08-15 13:30;69,25
2019-08-15 13:45;68,6
2019-08-15 14:00;67,8
2019-08-15 14:15;67,5
2019-08-15 14:30;69,15
2019-08-15 14:45;69,1
2019-08-15 15:00;70,8
2019-08-15 15:15;72,25
2019-08-15 15:30;71,3
2019-08-15 15:45;71,35
2019-08-15 16:00;73,05
2019-08-15 16:15;73,55
2019-08-15 16:30;72
2019-08-15 16:45;71,9
2019-08-15 17:00;77,4
2019-08-15 17:15;76,9
2019-08-15 17:30;77,4
2019-08-15 17:45;78,6
2019-08-15 18:00;76,95
2019-08-15 18:15;77,05
2019-08-15 18:30;76,9
2019-08-15 18:45;77,8
2019-08-15 19:00;83,4
2019-08-15 19:15;86,25
2019-08-15 19:30;86,7
2019-08-15 19:45;86,7
2019-08-15 20:00;86,95
2019-08-15 20:15;85,1
2019-08-15 20:30;76,5
2019-08-15 20:45;78,4
2019-08-15 21:00;79,8
2019-08-15 21:15;79,7
2019-08-15 21:30;76,7
2019-08-15 21:45;78,3
2019-08-15 22:00;76,45
2019-08-15 22:15;75,2
2019-08-15 22:30;74,55
2019-08-15 22:45;74,7
2019-08-15 23:00;79,8
2019-08-15 23:15;77,4
2019-08-15 23:30;81,05
2019-08-15 23:45;85,45
2019-08-16 00:00;73,05
2019-08-16 00:15;73,15
2019-08-16 00:30;71,9
2019-08-16 00:45;74
2019-08-16 01:00;74,8
2019-08-16 01:15;72,4
2019-08-16 01:30;75,15
2019-08-16 01:45;73,75
2019-08-16 02:00;72
2019-08-16 02:15;72,6
2019-08-16 02:30;72,3
2019-08-16 02:45;74,65
2019-08-16 03:00;73,7
2019-08-16 03:15;73,3
2019-08-16 03:30;75,4
2019-08-16 03:45;75,1
2019-08-16 04:00;76,05
2019-08-16 04:15;75,3
2019-08-16 04:30;75,95
2019-08-16 04:45;75,55
2019-08-16 05:00;74,8
2019-08-16 05:15;76,45
2019-08-16 05:30;76,15
2019-08-16 05:45;75,25
2019-08-16 06:00;74,35
2019-08-16 06:15;72,5
2019-08-16 06:30;72,4
2019-08-16 06:45;69,05
2019-08-16 07:00;76,05
2019-08-16 07:15;77,15
2019-08-16 07:30;79,05
2019-08-16 07:45;79,3
2019-08-16 08:00;78,15
2019-08-16 08:15;78,45
2019-08-16 08:30;78,6
2019-08-16 08:45;79,75
2019-08-16 09:00;79,9
2019-08-16 09:15;80,85
2019-08-16 09:30;79,6
2019-08-16 09:45;83,45
2019-08-16 10:00;83,3
2019-08-16 10:15;86,1
2019-08-16 10:30;88,15
2019-08-16 10:45;87,6
2019-08-16 11:00;89,5
2019-08-16 11:15;89,65
2019-08-16 11:30;93,15
2019-08-16 11:45;92,45
2019-08-16 12:00;94,05
2019-08-16 12:15;94,6
2019-08-16 12:30;93,05
2019-08-16 12:45;94,15
2019-08-16 13:00;92,05
2019-08-16 13:15;92,15
2019-08-16 13:30;91,35
2019-08-16 13:45;93,15
2019-08-16 14:00;90,95
2019-08-16 14:15;92,1
2019-08-16 14:30;92,05
2019-08-16 14:45;90,75
2019-08-16 15:00;89,9
2019-08-16 15:15;89,4
2019-08-16 15:30;87,85
2019-08-16 15:45;90,1
2019-08-16 16:00;90,25
2019-08-16 16:15;90,55
2019-08-16 16:30;88,8
2019-08-16 16:45;89,6
2019-08-16 17:00;86,1
2019-08-16 17:15;86,25
2019-08-16 17:30;87,25
2019-08-16 17:45;88,25
2019-08-16 18:00;88,25
2019-08-16 18:15;86,55
2019-08-16 18:30;87,95
2019-08-16 18:45;86,3
2019-08-16 19:00;90,4
2019-08-16 19:15;90,6
2019-08-16 19:30;93,9
2019-08-16 19:45;92,65
2019-08-16 20:00;91,1
2019-08-16 20:15;93,2
2019-08-16 20:30;93,9
2019-08-16 20:45;96,85
2019-08-16 21:00;95,15
2019-08-16 21:15;95,05
2019-08-16 21:30;95,2
2019-08-16 21:45;93,7
2019-08-16 22:00;94,1
2019-08-16 22:15;90,1
2019-08-16 22:30;92,9
2019-08-16 22:45;91,6
2019-08-16 23:00;96,6
2019-08-16 23:15;94,3
2019-08-16 23:30;94,8
2019-08-16 23:45;98,95
2019-08-17 00:00;86,55
2019-08-17 00:15;81,9
2019-08-17 00:30;76,15
2019-08-17 00:45;74,75
2019-08-17 01:00;75,05
2019-08-17 01:15;76,4
2019-08-17 01:30;73,15
2019-08-17 01:45;75,2
2019-08-17 02:00;74,9
2019-08-17 02:15;73,7
2019-08-17 02:30;73,95
2019-08-17 02:45;73,65
2019-08-17 03:00;0
2019-08-17 03:15;0
2019-08-17 03:30;0
2019-08-17 03:45;0
2019-08-17 04:00;0
2019-08-17 04:15;0
2019-08-17 04:30;0
2019-08-17 04:45;0
2019-08-17 05:00;0
2019-08-17 05:15;0
2019-08-17 05:30;0
2019-08-17 05:45;0
2019-08-17 06:00;0
2019-08-17 06:15;0
2019-08-17 06:30;0
2019-08-17 06:45;0
2019-08-17 07:00;0
2019-08-17 07:15;0
2019-08-17 07:30;0
2019-08-17 07:45;0
2019-08-17 08:00;0
2019-08-17 08:15;0
2019-08-17 08:30;0
2019-08-17 08:45;0
2019-08-17 09:00;0
2019-08-17 09:15;0
2019-08-17 09:30;0
2019-08-17 09:45;0
2019-08-17 10:00;0
2019-08-17 10:15;0
2019-08-17 10:30;0
2019-08-17 10:45;0
2019-08-17 11:00;0
2019-08-17 11:15;0
2019-08-17 11:30;0
2019-08-17 11:45;0
2019-08-17 12:00;0
2019-08-17 12:15;0
2019-08-17 12:30;0
2019-08-17 12:45;0
2019-08-17 13:00;0
2019-08-17 13:15;0
2019-08-17 13:30;0
2019-08-17 13:45;0
2019-08-17 14:00;0
2019-08-17 14:15;0
2019-08-17 14:30;0
2019-08-17 14:45;0
2019-08-17 15:00;0
2019-08-17 15:15;0
2019-08-17 15:30;0
2019-08-17 15:45;0
2019-08-17 16:00;0
2019-08-17 16:15;0
2019-08-17 16:30;0
2019-08-17 16:45;0
2019-08-17 17:00;0
2019-08-17 17:15;0
2019-08-17 17:30;0
2019-08-17 17:45;0
2019-08-17 18:00;0
2019-08-17 18:15;0
2019-08-17 18:30;0
2019-08-17 18:45;0
2019-08-17 19:00;0
2019-08-17 19:15;0
2019-08-17 19:30;0
2019-08-17 19:45;0
2019-08-17 20:00;0
2019-08-17 20:15;0
2019-08-17 20:30;0
2019-08-17 20:45;0
2019-08-17 21:00;0
2019-08-17 21:15;0
2019-08-17 21:30;0
2019-08-17 21:45;0
2019-08-17 22:00;0
2019-08-17 22:15;0
2019-08-17 22:30;0
2019-08-17 22:45;0
2019-08-17 23:00;0
2019-08-17 23:15;0
2019-08-17 23:30;0
2019-08-17 23:45;0
2019-08-18 00:00;0
2019-08-18 00:15;0
2019-08-18 00:30;0
2019-08-18 00:45;0
2019-08-18 01:00;0
2019-08-18 01:15;0
2019-08-18 01:30;0
2019-08-18 01:45;0
2019-08-18 02:00;0
2019-08-18 02:15;0
2019-08-18 02:30;0
2019-08-18 02:45;0
2019-08-18 03:00;0
2019-08-18 03:15;0
2019-08-18 03:30;0
2019-08-18 03:45;0
2019-08-18 04:00;0
2019-08-18 04:15;0
2019-08-18 04:30;0
2019-08-18 04:45;0
2019-08-18 05:00;0
2019-08-18 05:15;0
2019-08-18 05:30;0
2019-08-18 05:45;0
2019-08-18 06:00;0
2019-08-18 06:15;0
2019-08-18 06:30;0
2019-08-18 06:45;0
2019-08-18 07:00;0
2019-08-18 07:15;0
2019-08-18 07:30;0
2019-08-18 07:45;0
2019-08-18 08:00;0
2019-08-18 08:15;0
2019-08-18 08:30;0
2019-08-18 08:45;0
2019-08-18 09:00;0
2019-08-18 09:15;0
2019-08-18 09:30;0
2019-08-18 09:45;0
2019-08-18 10:00;0
2019-08-18 10:15;0
2019-08-18 10:30;0
2019-08-18 10:45;0
2019-08-18 11:00;0
2019-08-18 11:15;0
2019-08-18 11:30;0
2019-08-18 11:45;0
2019-08-18 12:00;0
2019-08-18 12:15;0
2019-08-18 12:30;0
2019-08-18 12:45;0
2019-08-18 13:00;0
2019-08-18 13:15;0
2019-08-18 13:30;0
2019-08-18 13:45;0
2019-08-18 14:00;0
2019-08-18 14:15;0
2019-08-18 14:30;0
2019-08-18 14:45;0
2019-08-18 15:00;0
2019-08-18 15:15;0
2019-08-18 15:30;0
2019-08-18 15:45;0
2019-08-18 16:00;0
2019-08-18 16:15;0
2019-08-18 16:30;0
2019-08-18 16:45;0
2019-08-18 17:00;0
2019-08-18 17:15;0
2019-08-18 17:30;0
2019-08-18 17:45;0
2019-08-18 18:00;0
2019-08-18 18:15;0
2019-08-18 18:30;0
2019-08-18 18:45;0
2019-08-18 19:00;0
2019-08-18 19:15;0
2019-08-18 19:30;0
2019-08-18 19:45;0
2019-08-18 20:00;0
2019-08-18 20:15;0
2019-08-18 20:30;0
2019-08-18 20:45;0
2019-08-18 21:00;0
2019-08-18 21:15;0
2019-08-18 21:30;0
2019-08-18 21:45;0
2019-08-18 22:00;0
2019-08-18 22:15;0
2019-08-18 22:30;0
2019-08-18 22:45;0
2019-08-18 23:00;0
2019-08-18 23:15;0
2019-08-18 23:30;0
2019-08-18 23:45;0

